Regional Weather Roundup
Issued by NWS

Home | Current Version | Previous Version | Text Only | Print | Product List | Glossary Off
Versions: 1 2 3 4 5 6 7 8 9 10 11 12 13 14 15 16 17 18 19 20 21 22 23 24 25 26 27 28 29 30 31 32 33 34 35 36 37 38 39 40 41 42 43 44 45 46 47 48 49 50

000
ASUS43 KDTX 282310
RWRMI
MICHIGAN HOURLY REGIONAL WEATHER ROUNDUP
NATIONAL WEATHER SERVICE DETROIT/PONTIAC MI
600 PM EST SAT FEB 28 2015

NOTE: "FAIR" INDICATES FEW OR NO CLOUDS BELOW 12,000 FEET WITH NO
SIGNIFICANT WEATHER AND/OR OBSTRUCTION TO VISIBILITY.

MIZ047>049-052>055-059>063-066>070-074>076-081>083-010000-
SOUTHEAST LOWER MICHIGAN

CITY           SKY/WX    TMP DP  RH WIND       PRES   REMARKS
ADRIAN         PTCLDY    16   1  51 S3        30.62F
ALMA           CLEAR     18  -1  42 S7        30.59F
ANN ARBOR      CLEAR     17   3  54 S5        30.61F
BAD AXE        CLEAR     18   2  50 CALM      30.59F
DETROIT CITY   CLEAR     19   2  47 S8        30.64F
DETROIT        PTCLDY    19   4  51 SE8       30.65F
FLINT          CLEAR     20   0  41 S8        30.60F
GROSSE ILE     CLEAR     16   3  57 SE6       30.64S
HILLSDALE      CLEAR     16   2  53 SE6       30.57S
HOWELL         CLEAR     19   0  42 SE8       30.58F

CITY           SKY/WX    TMP DP  RH WIND       PRES   REMARKS
JACKSON        CLEAR     17  -1  45 SE8       30.58F
LAMBERTVILLE   CLEAR     21   0  39 SE3       30.63F
LANSING        CLEAR     20  -1  40 S6        30.59F
LAPEER         NOT AVBL
MASON          CLEAR     18   1  46 SE7       30.58F
MONROE         MOCLDY    18   1  49 SE7       30.63S
MT. CLEMENS    CLEAR     15   4  63 SE12      30.63S
PONTIAC        PTCLDY    19  -2  39 S6        30.59F
PORT HOPE        N/A     19  -1  41 SW5       30.59F
PORT HURON     CLEAR     18   5  57 SE7       30.64F
TRI CITIES     CLEAR     19   1  45 SW5       30.60F
YPSILANTI      CLEAR     18   4  54 S7        30.63F
$$
MIZ043>046-050>051-056>058-064>065-071>073-077>080-010000-
SOUTHWEST LOWER MICHIGAN

CITY           SKY/WX    TMP DP  RH WIND       PRES   REMARKS
BATTLE CREEK   CLEAR     19   0  43 S7        30.56F
BENTON HARBOR  CLEAR     19   1  45 SE8       30.57F
BIG RAPIDS     CLEAR     21   4  48 S8        30.52F
COLDWATER      CLEAR     17  -1  43 S6        30.57F
HOLLAND        CLEAR     18   4  54 W3        30.58F
GRAND RAPIDS   PTCLDY    20  -3  36 S7        30.56F
KALAMAZOO      CLEAR     19   1  45 S7        30.57F
MARSHALL       CLEAR     17   0  46 S5        30.57F
MUSKEGON       PTCLDY    17   6  62 SW7       30.58F
$$
MIZ016>042-010000-
NORTHERN LOWER MICHIGAN

CITY           SKY/WX    TMP DP  RH WIND       PRES   REMARKS
ALPENA         CLEAR     27   0  31 SW8       30.52F
BEAVER ISLAND  PTCLDY    19  11  71 SW9G16    30.51F
BELLAIRE       CLEAR     24   2  38 SW5       30.52F
CADILLAC       CLEAR     20   4  48 S7        30.47S
CHARLEVOIX     CLEAR     19  10  70 CALM      30.55F
FRANKFORT      CLEAR     19  10  68 SW8G17    30.54F
GAYLORD        CLEAR     20   3  48 SW9       30.46F
GRAYLING       CLEAR     22   2  41 S6        30.50S
HARBOR SPRINGS CLEAR     20  10  67 W5        30.52F
HOUGHTON LAKE  CLEAR     20   2  45 S9        30.50F
MANISTEE       CLEAR     19   5  53 SW7       30.55F
OSCODA         CLEAR     20   6  54 S10       30.56S
PELLSTON       CLEAR     19   8  62 W3        30.52F
TRAVERSE CITY  PTCLDY    24   3  40 SW6       30.51F
$$
MIZ007>008-015-010000-
EASTERN UPPER MICHIGAN

CITY           SKY/WX    TMP DP  RH WIND       PRES   REMARKS
KINROSS        PTCLDY    19   9  63 SW6       30.50S
MACKINAC ISLAN CLEAR     17  10  74 SW12G18   30.51S
NEWBERRY       PTCLDY    16   9  75 S12G21    30.46F
S. S. MARIE    PTCLDY    18   4  54 S9        30.49F
$$
MIZ004>006-011>014-085-010000-
CENTRAL UPPER MICHIGAN

CITY           SKY/WX    TMP DP  RH WIND       PRES   REMARKS
MANISTIQUE     CLEAR     20  11  67 SW15G23   30.47F
ESCANABA       CLEAR     18   3  53 S14G23    30.47F
MENOMINEE      CLEAR     18   0  45 S12G17    30.47F
SAWYER-GWINN   CLEAR     21   0  39 S14       30.36F
$$
MIZ001>003-009>011-084-010000-
WESTERN UPPER MICHIGAN

CITY           SKY/WX    TMP DP  RH WIND       PRES   REMARKS
IRON MOUNTAIN  CLEAR     22  -1  36 S12       30.37F
HOUGHTON       CLEAR     24  -3  30 SW7       30.30F
COPPER HARBOR    N/A     18   8  65 E3        30.35F
IRONWOOD       CLEAR     19  -4  35 SW15G21   30.29F
$$

ABBREVIATIONS USED IN REMARKS
   TC - TEMPERATURE IN CELSIUS
  WCI - WIND CHILL INDEX
   HX - HEAT INDEX
  VSB - VISIBILITY



USA.gov is the U.S. government's official web portal to all federal, state and local government web resources and services.